[[{"header":{"parameterUnit":"m.s-1","parameterCategory":1,"la1":30.2991,"la2":30.254,"lo1":-89.0895,"lo2":-89.0444,"dy":0.0017,"dx":0.0017,"nx":28,"ny":28,"refTime":"2024-02-03T03:00:00:Z","depth":0,"parameterNumber":2,"parameterNumberName":"U-component_of_WINDS"},"data":[0,0,0,0,0,0,0,0,0,0,0,0,0,0,0,0,0,0,0,0,0,0,0,0,0,0,0,0,0,0,0,0,0,0,0,0,0,0,0,0,0,0,0,0,0,0,0,0,0,0,0,0,0,0,0,0,0,0,0.6901,0.6892,0,0.5994,0.5984,0.5973,0.5436,0.5434,0.5432,0.5429,0.4462,0.4439,0.4415,0,0,0,0,0,0,0,0,0,0,0,0,0,0.8133,0.8114,0.6902,0.6891,0.688,0.5996,0.5983,0.5971,0.5436,0.5434,0.5431,0.5428,0.4469,0.4441,0.4413,0,0,0,0,0,0,0,0,0,0,0,0,0,0.7449,0.8108,0.6904,0.6507,0.6463,0.5999,0.5983,0.5967,0.5437,0.5434,0.543,0.5427,0.4479,0.4444,0.4409,0.4257,0,0,0.4301,0.4285,0,0,0,0,0,0,0,0,0.7489,0.7404,0.6577,0.6534,0.6483,0.5826,0.6062,0.5393,0.5438,0.5825,0.5429,0.5425,0.4916,0.4844,0.468,0.4212,0.417,0.4297,0.4276,0.4261,0.4251,0,0,0,0,0,0,0,0.7537,0.744,0.6541,0.6565,0.6508,0.6362,0.6261,0.5933,0.5399,0.5791,0.575,0.5652,0.4889,0.4716,0.4653,0.4156,0.4298,0.4267,0.4245,0.4231,0.3516,0.3518,0,0,0,0,0,0,0.7653,0.7484,0.657,0.6514,0.6989,0.6343,0.623,0.6039,0.5401,0.5302,0.5656,0.5631,0.4778,0.4695,0.4617,0.44,0.4261,0.4228,0.4207,0.3514,0.3517,0.3519,0,0,0,0,0,0,0.7682,0.7577,0.6607,0.6987,0.6853,0.6325,0.6116,0.6023,0.585,0.53,0.5198,0.558,0.4772,0.4667,0.4353,0.4359,0.4212,0.4179,0.3511,0.3515,0.3518,0.3967,0,0,0,0,0,0,0.7719,0.759,0.7537,0.6991,0.6835,0.6372,0.6116,0.6008,0.5795,0.5753,0.5201,0.5106,0.4761,0.441,0.4319,0.4308,0.4151,0.3508,0.3513,0.3517,0.3949,0.3985,0.4016,0,0,0,0,0,0.7765,0.769,0.7537,0.7429,0.6759,0.6374,0.6283,0.5899,0.5798,0.5734,0.538,0.5124,0.4373,0.4382,0.4274,0.4254,0.3506,0.3511,0.3516,0.3934,0.3978,0.4015,0,0,0,0,0,0,0.8235,0.7611,0.7434,0.7183,0.6838,0.6285,0.6193,0.5957,0.5623,0.5596,0.512,0.5,0.4734,0.4457,0.448,0.4072,0.391,0.3894,0.4264,0.4301,0.4335,0.4408,0.4122,0,0,0,0,0,0.8314,0.8066,0.7526,0.7355,0.7193,0.6725,0.6541,0.6277,0.5893,0.5741,0.5363,0.4991,0.467,0.4468,0.4142,0.3904,0.3774,0.3835,0.3869,0.3899,0.3893,0.3747,0.3768,0.3536,0.3536,0.3536,0,0,0.8464,0.8092,0.7962,0.7441,0.7142,0.6887,0.6604,0.6343,0.6145,0.5695,0.5384,0.5093,0.4643,0.4371,0.4229,0.4133,0.3927,0.3906,0.3935,0.3909,0.3755,0.3777,0.3797,0.354,0.3539,0.3538,0,0,0.8614,0.8308,0.8136,0.7845,0.7401,0.7089,0.7049,0.653,0.6326,0.6006,0.5665,0.5413,0.4871,0.4568,0.4343,0.4378,0.413,0.4282,0.446,0.4323,0.4342,0.4356,0.4372,0.4383,0.4276,0.4277,0.4278,0,0.8856,0.847,0.8072,0.7836,0.7615,0.7209,0.7026,0.6756,0.6224,0.6075,0.5976,0.5292,0.4959,0.4611,0.4622,0.4449,0.4383,0.4347,0.4374,0.4383,0.439,0.44,0.4407,0.4299,0.4297,0.4294,0.4292,0,0.8791,0.8528,0.8438,0.7954,0.7719,0.751,0.7071,0.6879,0.6633,0.6331,0.6007,0.5595,0.5182,0.5076,0.4826,0.469,0.4645,0.4467,0.4295,0.4442,0.4443,0.4443,0.4331,0.4323,0.4317,0.4311,0,0,0.9214,0.8516,0.8491,0.8267,0.7746,0.7528,0.7295,0.6905,0.6752,0.6393,0.6185,0.5736,0.557,0.5315,0.5025,0.4906,0.4965,0.4738,0.472,0.48,0.479,0.4936,0.4947,0.4794,0.4793,0.4792,0.483,0,0.9292,0.8876,0.8511,0.8221,0.7971,0.758,0.7376,0.703,0.6738,0.6473,0.6141,0.5837,0.5637,0.5481,0.5344,0.4989,0.4957,0.4978,0.4589,0.4581,0.4725,0.4946,0.5096,0.5153,0.4827,0.4827,0.4826,0,0.9328,0.9007,0.87,0.8209,0.8089,0.7917,0.7529,0.7283,0.6877,0.6671,0.6392,0.6092,0.5817,0.5671,0.5283,0.5307,0.5122,0.4923,0.4915,0.4869,0.472,0.4912,0.516,0.5174,0.4822,0.4823,0.4823,0,0.9679,0.9163,0.8914,0.8732,0.8152,0.804,0.7789,0.7381,0.7171,0.6825,0.6683,0.6305,0.61,0.5809,0.5411,0.5341,0.5066,0.4885,0.4884,0.4896,0.485,0.486,0.5082,0.4722,0.4722,0.4722,0.4722,0,0.9808,0.9636,0.9066,0.8914,0.8706,0.8281,0.8083,0.7795,0.7437,0.7213,0.6841,0.6636,0.6121,0.585,0.5534,0.5264,0.5169,0.4992,0.4912,0.503,0.5055,0.4909,0.4897,0.4723,0.4723,0.4723,0.4723,0,1.0167,0.9778,0.9482,0.896,0.8823,0.8695,0.824,0.8071,0.7759,0.7481,0.7389,0.6895,0.6558,0.6133,0.5653,0.5441,0.5206,0.5077,0.5351,0.5305,0.5332,0.5339,0.5472,0.5469,0.5112,0.5116,0.5119,0,1.028,1.0141,0.9608,0.9441,0.9207,0.8936,0.8723,0.8294,0.8085,0.7614,0.7501,0.7139,0.6828,0.6304,0.5895,0.5526,0.539,0.5462,0.5332,0.5457,0.5398,0.5416,0.54,0.5499,0.5505,0.551,0.5514,0,1.0523,1.034,1.0055,0.9704,0.9464,0.9162,0.8841,0.872,0.8222,0.8003,0.7664,0.7424,0.6942,0.6586,0.6166,0.589,0.5619,0.5558,0.5539,0.5663,0.5831,0.5747,0.545,0.5558,0.5553,0.555,0.5548,0.5546,1.0764,1.0626,1.0234,0.9927,0.9645,0.9355,0.9175,0.8845,0.8558,0.8146,0.7903,0.7572,0.7161,0.6573,0.631,0.6035,0.5933,0.5905,0.5898,0.5901,0.5942,0.5871,0.5955,0.5953,0.5951,0.5949,0.5948,0,1.0996,1.0726,1.0449,1.0023,0.9781,0.9557,0.919,0.9,0.8719,0.8366,0.8072,0.7679,0.7331,0.6897,0.6516,0.638,0.6246,0.6295,0.6304,0.6246,0.6051,0.6109,0.6411,0.6411,0.6411,0.6411,0.6411,0.6411,1.1089,1.0845,1.0615,1.0222,0.9944,0.9631,0.9442,0.9169,0.8888,0.8473,0.8189,0.7912,0.7523,0.7112,0.6781,0.6659,0.6539,0.6629,0.6472,0.6299,0.6259,0.622,0.6273,0.6604,0.6605,0.6689,0.669,0.6691]},{"header":{"parameterUnit":"m.s-1","parameterCategory":1,"la1":30.2991,"la2":30.254,"lo1":-89.0895,"lo2":-89.0444,"dy":0.0017,"dx":0.0017,"nx":28,"ny":28,"refTime":"2024-02-03T03:00:00:Z","depth":0,"parameterNumber":3,"parameterNumberName":"V-component_of_WINDS"},"data":[0,0,0,0,0,0,0,0,0,0,0,0,0,0,0,0,0,0,0,0,0,0,0,0,0,0,0,0,0,0,0,0,0,0,0,0,0,0,0,0,0,0,0,0,0,0,0,0,0,0,0,0,0,0,0,0,0,0,-1.7128,-1.7113,0,-1.5676,-1.5659,-1.5643,-1.4972,-1.4973,-1.4975,-1.4976,-1.344,-1.3399,-1.3357,0,0,0,0,0,0,0,0,0,0,0,0,0,-1.927,-1.9235,-1.713,-1.7112,-1.7094,-1.5679,-1.5659,-1.5638,-1.4972,-1.4973,-1.4975,-1.4977,-1.3454,-1.3404,-1.3353,0,0,0,0,0,0,0,0,0,0,0,0,0,-1.8131,-1.9223,-1.7133,-1.6592,-1.6529,-1.5683,-1.5658,-1.5633,-1.4971,-1.4973,-1.4976,-1.4977,-1.347,-1.3409,-1.3346,-1.2915,0,0,-1.3153,-1.3126,0,0,0,0,0,0,0,0,-1.8196,-1.8052,-1.6689,-1.6627,-1.6555,-1.5508,-1.5849,-1.472,-1.4971,-1.5561,-1.4976,-1.4978,-1.4123,-1.4007,-1.3728,-1.2843,-1.2777,-1.3148,-1.3109,-1.3082,-1.3064,0,0,0,0,0,0,0,-1.8276,-1.8111,-1.6553,-1.667,-1.6588,-1.6402,-1.6243,-1.5632,-1.4846,-1.551,-1.5458,-1.5298,-1.4086,-1.3791,-1.3687,-1.2755,-1.3149,-1.3093,-1.3054,-1.3029,-1.1423,-1.1419,0,0,0,0,0,0,-1.8451,-1.8182,-1.6599,-1.6509,-1.7399,-1.6362,-1.6184,-1.5841,-1.4852,-1.4704,-1.5298,-1.5272,-1.3898,-1.3761,-1.363,-1.3051,-1.3083,-1.3023,-1.2987,-1.1428,-1.1422,-1.1417,0,0,0,0,0,0,-1.8499,-1.8316,-1.6657,-1.733,-1.7106,-1.6324,-1.5944,-1.5812,-1.5516,-1.4692,-1.4543,-1.5144,-1.3894,-1.3719,-1.3097,-1.2989,-1.2995,-1.2937,-1.1434,-1.1426,-1.142,-1.1898,0,0,0,0,0,0,-1.8564,-1.8338,-1.8181,-1.7333,-1.7073,-1.6169,-1.5938,-1.5782,-1.5414,-1.5367,-1.4508,-1.4367,-1.3882,-1.3196,-1.3035,-1.2902,-1.2888,-1.144,-1.143,-1.1422,-1.1889,-1.1909,-1.1926,0,0,0,0,0,-1.8643,-1.8365,-1.8177,-1.7989,-1.6863,-1.6164,-1.6013,-1.5475,-1.5409,-1.5233,-1.4701,-1.4394,-1.3028,-1.3138,-1.2951,-1.2798,-1.1444,-1.1433,-1.1423,-1.188,-1.1905,-1.1925,0,0,0,0,0,0,-1.9206,-1.8245,-1.8024,-1.7469,-1.6906,-1.6054,-1.5818,-1.5519,-1.495,-1.4928,-1.4267,-1.4078,-1.3513,-1.3089,-1.323,-1.2318,-1.2206,-1.2158,-1.2618,-1.2634,-1.2652,-1.2764,-1.2835,0,0,0,0,0,-1.9269,-1.88,-1.7977,-1.7564,-1.7294,-1.6608,-1.6282,-1.5917,-1.5298,-1.5052,-1.4475,-1.3874,-1.3304,-1.2945,-1.2378,-1.1823,-1.1616,-1.1622,-1.1642,-1.1661,-1.1626,-1.1286,-1.1275,-1.1382,-1.1382,-1.1383,0,0,-1.9387,-1.8804,-1.8546,-1.7663,-1.7183,-1.6694,-1.641,-1.5906,-1.553,-1.4968,-1.4351,-1.3906,-1.3186,-1.2596,-1.2305,-1.2226,-1.155,-1.1647,-1.1669,-1.1621,-1.1274,-1.1265,-1.1257,-1.1375,-1.1376,-1.1377,0,0,-1.9354,-1.8873,-1.8472,-1.7998,-1.728,-1.6822,-1.6728,-1.5916,-1.5603,-1.4975,-1.454,-1.4072,-1.3114,-1.2617,-1.224,-1.2008,-1.1698,-1.1839,-1.1935,-1.1612,-1.1604,-1.1593,-1.1501,-1.1477,-1.1807,-1.1808,-1.1809,0,-1.9589,-1.8854,-1.83,-1.782,-1.7437,-1.6919,-1.6497,-1.6057,-1.5185,-1.4924,-1.4851,-1.363,-1.3109,-1.2389,-1.2334,-1.2047,-1.1902,-1.1936,-1.1654,-1.1636,-1.1617,-1.1522,-1.149,-1.183,-1.1827,-1.1825,-1.1823,0,-1.9172,-1.8666,-1.8425,-1.7613,-1.72,-1.6752,-1.6112,-1.5757,-1.5424,-1.4969,-1.4324,-1.3682,-1.2972,-1.2772,-1.2437,-1.1997,-1.1969,-1.1785,-1.1656,-1.1639,-1.1537,-1.1497,-1.1861,-1.1853,-1.1847,-1.1841,0,0,-1.9459,-1.8344,-1.8264,-1.7884,-1.7048,-1.6636,-1.6153,-1.5474,-1.5178,-1.4587,-1.4157,-1.3353,-1.3173,-1.2745,-1.2345,-1.2063,-1.1908,-1.1905,-1.1878,-1.1924,-1.1369,-1.1515,-1.1484,-1.1698,-1.1688,-1.1681,-1.1427,0,-1.9308,-1.8446,-1.7927,-1.7266,-1.6782,-1.6276,-1.5852,-1.5284,-1.4842,-1.4351,-1.3851,-1.3292,-1.3102,-1.2838,-1.2536,-1.1994,-1.1787,-1.2003,-1.1273,-1.1255,-1.1471,-1.1431,-1.1583,-1.1377,-1.1385,-1.1378,-1.1373,0,-1.9019,-1.8457,-1.7755,-1.6965,-1.674,-1.6375,-1.5701,-1.5245,-1.4579,-1.4274,-1.3797,-1.3395,-1.2844,-1.2764,-1.1987,-1.2147,-1.1813,-1.1499,-1.1477,-1.1386,-1.1315,-1.1334,-1.1298,-1.1268,-1.1306,-1.1311,-1.1316,0,-1.9295,-1.8358,-1.7813,-1.7503,-1.657,-1.6321,-1.5916,-1.5255,-1.4876,-1.4279,-1.4022,-1.3367,-1.3006,-1.2498,-1.1922,-1.1918,-1.1198,-1.1071,-1.0916,-1.0931,-1.0788,-1.0805,-1.0696,-1.0582,-1.0582,-1.0583,-1.0584,0,-1.9179,-1.8767,-1.7924,-1.7591,-1.7105,-1.6502,-1.6032,-1.5582,-1.4997,-1.455,-1.4064,-1.3651,-1.2919,-1.2408,-1.1951,-1.1371,-1.1211,-1.0937,-1.082,-1.098,-1.1015,-1.0752,-1.075,-1.0574,-1.0576,-1.0578,-1.0579,0,-1.9407,-1.8828,-1.82,-1.7369,-1.7148,-1.6828,-1.6103,-1.5747,-1.5278,-1.4718,-1.4549,-1.3806,-1.3179,-1.2556,-1.1708,-1.1399,-1.0825,-1.0669,-1.1057,-1.0991,-1.087,-1.0889,-1.0586,-1.051,-1.0458,-1.0459,-1.046,0,-1.9373,-1.9045,-1.818,-1.7856,-1.7467,-1.6947,-1.6559,-1.5943,-1.5555,-1.4768,-1.4503,-1.3844,-1.3285,-1.2303,-1.1674,-1.1019,-1.0839,-1.0778,-1.0737,-1.0905,-1.0829,-1.0857,-1.0814,-1.0799,-1.0802,-1.0805,-1.0808,0,-1.937,-1.9098,-1.8569,-1.7935,-1.7489,-1.6955,-1.6402,-1.6157,-1.543,-1.5014,-1.4378,-1.3945,-1.3082,-1.2427,-1.1697,-1.1254,-1.0904,-1.0826,-1.0753,-1.0912,-1.1149,-1.1013,-1.1106,-1.0835,-1.0833,-1.0831,-1.0829,-1.0828,-1.9457,-1.914,-1.8483,-1.7903,-1.7425,-1.6918,-1.6542,-1.6027,-1.5491,-1.4753,-1.4415,-1.3771,-1.3091,-1.2078,-1.1642,-1.1114,-1.1022,-1.0921,-1.0893,-1.0877,-1.0911,-1.1238,-1.0978,-1.0976,-1.0974,-1.0973,-1.0972,0,-1.9426,-1.8978,-1.8452,-1.77,-1.7239,-1.6965,-1.6333,-1.5961,-1.5407,-1.4813,-1.4274,-1.3532,-1.2891,-1.2212,-1.1526,-1.1233,-1.1053,-1.1073,-1.1086,-1.0987,-1.1035,-1.1165,-1.123,-1.123,-1.123,-1.123,-1.123,-1.123,-1.9356,-1.8802,-1.8451,-1.7645,-1.7189,-1.6569,-1.6231,-1.5752,-1.5275,-1.4476,-1.3947,-1.3514,-1.2875,-1.2139,-1.1532,-1.1345,-1.1112,-1.1178,-1.0946,-1.1003,-1.0986,-1.0969,-1.1086,-1.1134,-1.1134,-1.0939,-1.0938,-1.0937]}]]